When you browse on this site, cookies collect data to enhance your experience and personalize the content and advertising you see.
Visit our Privacy Policy to learn more. By continuing to use the site, you agree to this use of cookies and data.
  • In United Kingdom
  • List of Countries
  • For 7 days
  • Water Temperature
  • Weather Map
  • Weather Widgets
  • user-avatar
    Login

    Hourly Weather Harrisburg

    Today, 18 January, Saturday

    Time Temperature Precipitation Wind Pressure Humidity
    00:00 -3°C° 0 mm 1 mps 768 mmHg 45%
    01:00 -3°C° 0 mm 1 mps 768 mmHg 42%
    02:00 -3°C° 0 mm 1 mps 768 mmHg 42%
    03:00 -3°C° 0 mm 1 mps 767 mmHg 42%
    04:00 -3°C° 0 mm 1 mps 767 mmHg 41%
    05:00 -3°C° 0.1 mm 1 mps 766 mmHg 41%
    06:00 -5°C° 0.1 mm 2 mps 765 mmHg 41%
    07:00 -5°C° 0 mm 2 mps 765 mmHg 44%
    08:00 -6°C° 0.5 mm 3 mps 764 mmHg 51%
    09:00 -7°C° 0.5 mm 4 mps 763 mmHg 57%
    10:00 -5°C° 0.5 mm 4 mps 762 mmHg 63%
    11:00 -6°C° 0.2 mm 5 mps 760 mmHg 68%
    12:00 -5°C° 0.2 mm 6 mps 759 mmHg 73%
    13:00 -5°C° 0.2 mm 6 mps 757 mmHg 78%
    14:00 -6°C° 2 mm 7 mps 756 mmHg 83%
    15:00 -6°C° 2 mm 7 mps 754 mmHg 88%
    16:00 -4°C° 2 mm 7 mps 753 mmHg 93%
    17:00 -4°C° 0.5 mm 6 mps 752 mmHg 92%
    18:00 -3°C° 0.5 mm 6 mps 751 mmHg 92%
    19:00 -1°C° 0.5 mm 5 mps 750 mmHg 92%
    20:00 0°C° 0 mm 5 mps 748 mmHg 93%
    21:00 0°C° 0 mm 4 mps 747 mmHg 94%
    22:00 +1°C° 0 mm 4 mps 745 mmHg 95%
    23:00 +1°C° 0.1 mm 4 mps 745 mmHg 96%

    Tomorrow, 19 January, Sunday

    Time Temperature Precipitation Wind Pressure Humidity
    00:00 +1°C° 0.1 mm 4 mps 744 mmHg 97%
    01:00 +3°C° 0.1 mm 3 mps 744 mmHg 98%
    02:00 +1°C° 0 mm 4 mps 744 mmHg 92%
    03:00 0°C° 0 mm 4 mps 744 mmHg 86%
    04:00 -1°C° 0 mm 5 mps 744 mmHg 81%
    05:00 -2°C° 0 mm 5 mps 745 mmHg 81%
    06:00 -4°C° 0 mm 5 mps 746 mmHg 82%
    07:00 -5°C° 0 mm 5 mps 747 mmHg 82%
    08:00 -5°C° 0 mm 5 mps 747 mmHg 80%
    09:00 -6°C° 0 mm 6 mps 748 mmHg 78%
    10:00 -8°C° 0 mm 6 mps 748 mmHg 76%
    11:00 -6°C° 0 mm 6 mps 749 mmHg 75%
    12:00 -7°C° 0 mm 7 mps 749 mmHg 74%
    13:00 -7°C° 0 mm 7 mps 749 mmHg 73%
    14:00 -8°C° 0 mm 7 mps 749 mmHg 73%
    15:00 -8°C° 0 mm 7 mps 749 mmHg 73%
    16:00 -8°C° 0 mm 7 mps 750 mmHg 74%
    17:00 -9°C° 0 mm 6 mps 750 mmHg 75%
    18:00 -10°C° 0 mm 6 mps 751 mmHg 76%
    19:00 -11°C° 0 mm 6 mps 752 mmHg 77%
    20:00 -11°C° 0 mm 6 mps 752 mmHg 77%
    21:00 -11°C° 0 mm 5 mps 752 mmHg 77%
    22:00 -11°C° 0 mm 5 mps 753 mmHg 78%
    23:00 -11°C° 0 mm 5 mps 753 mmHg 79%

    Day after tomorrow, 20 January, Monday

    Time Temperature Precipitation Wind Pressure Humidity
    00:00 -11°C° 0 mm 5 mps 753 mmHg 80%
    01:00 -10°C° 0 mm 5 mps 754 mmHg 81%
    02:00 -11°C° 0 mm 5 mps 754 mmHg 80%
    03:00 -11°C° 0 mm 5 mps 754 mmHg 79%
    04:00 -11°C° 0 mm 5 mps 755 mmHg 78%
    05:00 -12°C° 0 mm 5 mps 756 mmHg 78%
    06:00 -12°C° 0 mm 5 mps 757 mmHg 78%
    07:00 -12°C° 0 mm 5 mps 757 mmHg 78%
    08:00 -12°C° 0 mm 5 mps 758 mmHg 75%
    09:00 -11°C° 0 mm 5 mps 759 mmHg 73%
    10:00 -10°C° 0 mm 5 mps 759 mmHg 70%
    11:00 -8°C° 0 mm 5 mps 759 mmHg 67%
    12:00 -7°C° 0 mm 5 mps 759 mmHg 64%
    13:00 -6°C° 0 mm 5 mps 759 mmHg 60%
    14:00 -5°C° 0 mm 4 mps 759 mmHg 62%
    15:00 -5°C° 0 mm 4 mps 759 mmHg 63%
    16:00 -5°C° 0 mm 4 mps 760 mmHg 64%
    17:00 -6°C° 0 mm 3 mps 760 mmHg 69%
    18:00 -7°C° 0 mm 3 mps 761 mmHg 73%
    19:00 -7°C° 0 mm 2 mps 761 mmHg 78%
    20:00 -8°C° 0 mm 2 mps 761 mmHg 78%
    21:00 -9°C° 0 mm 3 mps 762 mmHg 79%
    22:00 -10°C° 0 mm 3 mps 762 mmHg 80%
    23:00 -10°C° 0 mm 3 mps 762 mmHg 81%

    21 January, Tuesday

    Time Temperature Precipitation Wind Pressure Humidity
    00:00 -9°C° 0 mm 2 mps 762 mmHg 82%
    01:00 -10°C° 0 mm 2 mps 762 mmHg 83%
    02:00 -10°C° 0 mm 2 mps 762 mmHg 84%
    03:00 -10°C° 0 mm 2 mps 761 mmHg 85%
    04:00 -10°C° 0 mm 2 mps 761 mmHg 86%
    05:00 -10°C° 0 mm 2 mps 762 mmHg 86%
    06:00 -10°C° 0 mm 2 mps 762 mmHg 87%
    07:00 -10°C° 0 mm 2 mps 762 mmHg 87%
    08:00 -9°C° 0 mm 2 mps 762 mmHg 83%
    09:00 -7°C° 0 mm 2 mps 762 mmHg 78%
    10:00 -7°C° 0 mm 3 mps 763 mmHg 74%
    11:00 -6°C° 0 mm 3 mps 762 mmHg 72%
    12:00 -5°C° 0 mm 3 mps 762 mmHg 70%
    13:00 -4°C° 0 mm 3 mps 761 mmHg 68%
    14:00 -2°C° 0 mm 3 mps 761 mmHg 70%
    15:00 -2°C° 0 mm 3 mps 761 mmHg 71%
    16:00 -2°C° 0 mm 3 mps 761 mmHg 73%
    17:00 -4°C° 0 mm 3 mps 761 mmHg 78%
    18:00 -5°C° 0 mm 3 mps 761 mmHg 82%
    19:00 -6°C° 0 mm 2 mps 762 mmHg 86%
    20:00 -6°C° 0 mm 2 mps 762 mmHg 86%
    21:00 -6°C° 0 mm 2 mps 762 mmHg 86%
    22:00 -6°C° 0 mm 2 mps 762 mmHg 86%
    23:00 -7°C° 0 mm 2 mps 762 mmHg 87%

    22 January, Wednesday

    Time Temperature Precipitation Wind Pressure Humidity
    00:00 -7°C° 0 mm 2 mps 762 mmHg 87%
    01:00 -6°C° 0 mm 1 mps 762 mmHg 87%
    02:00 -6°C° 0 mm 1 mps 762 mmHg 87%
    03:00 -6°C° 0 mm 1 mps 762 mmHg 87%
    04:00 -6°C° 0 mm 1 mps 762 mmHg 88%
    05:00 -7°C° 0 mm 1 mps 762 mmHg 88%
    06:00 -7°C° 0 mm 1 mps 762 mmHg 88%
    07:00 -7°C° 0 mm 1 mps 762 mmHg 88%
    08:00 -4°C° 0 mm 1 mps 763 mmHg 83%
    09:00 -3°C° 0 mm 1 mps 763 mmHg 78%
    10:00 -2°C° 0 mm 1 mps 763 mmHg 73%
    11:00 0°C° 0 mm 1 mps 763 mmHg 70%
    12:00 -1°C° 0 mm 2 mps 762 mmHg 67%
    13:00 +1°C° 0 mm 2 mps 762 mmHg 64%
    14:00 +2°C° 0 mm 1 mps 761 mmHg 66%
    15:00 +2°C° 0 mm 1 mps 761 mmHg 69%
    16:00 +2°C° 0 mm 1 mps 761 mmHg 72%
    17:00 +1°C° 0 mm 1 mps 761 mmHg 75%
    18:00 -1°C° 0 mm 0 mps 762 mmHg 78%
    19:00 -2°C° 0 mm 0 mps 762 mmHg 81%
    20:00 -3°C° 0 mm 0 mps 762 mmHg 82%
    21:00 -2°C° 0 mm 1 mps 762 mmHg 83%
    22:00 -2°C° 0 mm 1 mps 763 mmHg 84%
    23:00 -2°C° 0 mm 1 mps 762 mmHg 84%

    23 January, Thursday

    Time Temperature Precipitation Wind Pressure Humidity
    00:00 -3°C° 0 mm 0 mps 762 mmHg 84%
    01:00 -3°C° 0 mm 0 mps 762 mmHg 84%
    02:00 -4°C° 0 mm 0 mps 762 mmHg 84%
    03:00 -4°C° 0 mm 0 mps 762 mmHg 84%
    04:00 -3°C° 0 mm 1 mps 762 mmHg 84%
    05:00 -3°C° 0 mm 1 mps 762 mmHg 84%
    06:00 -4°C° 0 mm 0 mps 762 mmHg 85%
    07:00 -4°C° 0 mm 0 mps 762 mmHg 85%
    08:00 -3°C° 0 mm 0 mps 762 mmHg 80%
    09:00 -1°C° 0 mm 0 mps 762 mmHg 75%
    10:00 +1°C° 0 mm 1 mps 763 mmHg 70%
    11:00 +2°C° 0 mm 1 mps 762 mmHg 68%
    12:00 +3°C° 0 mm 1 mps 761 mmHg 65%
    13:00 +4°C° 0 mm 1 mps 761 mmHg 63%
    14:00 +3°C° 0 mm 0 mps 761 mmHg 66%
    15:00 +3°C° 0 mm 0 mps 761 mmHg 69%
    16:00 +2°C° 0 mm 0 mps 761 mmHg 72%
    17:00 +1°C° 0 mm 0 mps 761 mmHg 74%
    18:00 +1°C° 0 mm 0 mps 761 mmHg 76%
    19:00 0°C° 0 mm 0 mps 761 mmHg 78%
    20:00 -1°C° 0 mm 0 mps 761 mmHg 78%
    21:00 -1°C° 0 mm 0 mps 761 mmHg 78%
    22:00 -1°C° 0 mm 0 mps 761 mmHg 79%
    23:00 -1°C° 0 mm 0 mps 761 mmHg 79%
    Show more